Powrót do katalogu

SL-14 R/B

AktywnyPO
NORAD 20741·ROCKET BODY·🇷🇺 Russia

Wystrzelony Aug 8, 1990 z Plesetsk Cosmodrome

Loading…

Następne Przeloty (najbliższe 24 godziny)

TLE

ŚwieżeSource: Space-Track

Epoka: Sep 14, 2026, 14:30 UTC

1 20741U 90070G   26257.60463133  .00000012  00000-0  11871-4 0  9993
2 20741  82.5815  13.8589 0035282 215.8325 155.4224 12.55718710654752

Śledź SL-14 R/B w czasie rzeczywistym z AllMySat

Download on the App Store